Weather History for KANK - June, 2013

Change the Weather History Date:

Wednesday, June 5, 2013

  Actual Average (KGUC) Record (KGUC)
Temperature  
Mean Temperature 60 °F -  
Max Temperature 73 °F 69 °F 82 °F (2006)
Min Temperature 46 °F 35 °F 26 °F (1999)
Degree Days  
Heating Degree Days 6    
Growing Degree Days 10 (Base 50)    
Moisture  
Dew Point 43 °F    
Average Humidity 59    
Maximum Humidity 81    
Minimum Humidity 27    
Precipitation  
Precipitation 0.00 in - - ()
Sea Level Pressure  
Sea Level Pressure 30.25 in    
Wind  
Wind Speed 9 mph (SE)    
Max Wind Speed 26 mph    
Max Gust Speed 39 mph    
Visibility 10 miles    
Events      
Averages and records for this station are not official NWS values.
T = Trace of Precipitation, MM = Missing Value Source: NWS Daily Summary

Daily Weather History Graph

Daily Weather History Graph

Search for Another Location

Airport or City:

Trip Planner

Search our weather history database for the weather conditions in past years. The results will help you decide how hot, cold, wet, or windy it might be!

Date:

Astronomy

Jun. 05, 2013 Rise Set
Actual Time 5:40 AM MDT 8:25 PM MDT
Civil Twilight 5:09 AM MDT 8:56 PM MDT
Nautical Twilight 4:29 AM MDT 9:36 PM MDT
Astronomical Twilight 3:45 AM MDT 10:20 PM MDT
Moon 3:44 AM MDT (6/5) 5:55 PM MDT (6/5)
Length of Visible Light 15h 47m
Length of Day
14h 45m
Waning Crescent, 8% of the Moon is Illuminated
Jun 5
Waning Crescent
Jun 8
New
Jun 16
First Quarter
Jun 23
Full
Jun 29
Last Quarter

Hourly Weather History & Observations

Time (MDT) Temp. Dew Point Humidity Pressure Visibility Wind Dir Wind Speed Gust Speed Precip Events Conditions
12:15 AM 56.8 °F 34.0 °F 42% 30.27 in 10.0 mi SW 4.6 mph - N/A   Scattered Clouds
12:35 AM 58.1 °F 33.8 °F 40% 30.27 in 10.0 mi Calm Calm - N/A   Clear
12:55 AM 55.9 °F 34.5 °F 45% 30.27 in 10.0 mi SE 5.8 mph - N/A   Clear
1:15 AM 56.5 °F 39.7 °F 54% 30.28 in 10.0 mi Calm Calm - N/A   Clear
1:35 AM 53.4 °F 36.1 °F 52% 30.29 in 10.0 mi SW 4.6 mph - N/A   Clear
1:55 AM 52.9 °F 36.3 °F 53% 30.29 in 10.0 mi SSW 3.5 mph - N/A   Clear
2:15 AM 54.7 °F 44.4 °F 68% 30.27 in 10.0 mi ESE 4.6 mph - N/A   Clear
2:35 AM 53.6 °F 44.1 °F 70% 30.27 in 10.0 mi SE 4.6 mph - N/A   Clear
2:55 AM 54.0 °F 44.6 °F 71% 30.27 in 10.0 mi SSE 3.5 mph - N/A   Clear
3:15 AM 53.6 °F 43.9 °F 70% 30.27 in 10.0 mi South 5.8 mph - N/A   Clear
3:35 AM 53.4 °F 44.1 °F 71% 30.27 in 10.0 mi SSE 5.8 mph - N/A   Clear
3:55 AM 52.0 °F 43.3 °F 72% 30.27 in 10.0 mi Calm Calm - N/A   Clear
4:15 AM 48.4 °F 39.9 °F 73% 30.27 in 10.0 mi SW 8.1 mph - N/A   Clear
4:35 AM 49.1 °F 39.2 °F 69% 30.27 in 10.0 mi SSW 5.8 mph - N/A   Clear
4:55 AM 49.6 °F 39.0 °F 67% 30.27 in 10.0 mi SW 6.9 mph - N/A   Scattered Clouds
5:15 AM 51.8 °F 40.1 °F 64% 30.27 in 10.0 mi Calm Calm - N/A   Mostly Cloudy
5:35 AM 50.0 °F 38.5 °F 65% 30.27 in 10.0 mi WSW 3.5 mph - N/A   Scattered Clouds
5:55 AM 46.9 °F 41.2 °F 80% 30.27 in 10.0 mi West 5.8 mph - N/A   Clear
6:15 AM 47.8 °F 42.3 °F 81% 30.29 in 10.0 mi Calm Calm - N/A   Scattered Clouds
6:35 AM 50.7 °F 43.2 °F 75% 30.30 in 10.0 mi Calm Calm - N/A   Mostly Cloudy
6:55 AM 49.3 °F 41.9 °F 76% 30.30 in 10.0 mi West 4.6 mph - N/A   Mostly Cloudy
7:15 AM 53.1 °F 44.4 °F 72% 30.30 in 10.0 mi NNE 3.5 mph - N/A   Mostly Cloudy
7:35 AM 54.9 °F 45.0 °F 69% 30.29 in 10.0 mi SSE 4.6 mph - N/A   Mostly Cloudy
7:55 AM 56.7 °F 46.4 °F 69% 30.29 in 10.0 mi SE 16.1 mph 21.9 mph N/A   Mostly Cloudy
8:15 AM 57.4 °F 46.4 °F 67% 30.29 in 10.0 mi SE 11.5 mph 23.0 mph N/A   Scattered Clouds
8:35 AM 57.6 °F 46.4 °F 66% 30.29 in 10.0 mi ESE 13.8 mph 20.7 mph N/A   Scattered Clouds
8:55 AM 57.9 °F 46.0 °F 65% 30.30 in 10.0 mi ESE 12.7 mph 21.9 mph N/A   Clear
9:15 AM 59.2 °F 46.0 °F 62% 30.30 in 10.0 mi ESE 12.7 mph 19.6 mph N/A   Clear
9:35 AM 59.7 °F 45.9 °F 60% 30.30 in 10.0 mi ESE 12.7 mph 23.0 mph N/A   Clear
9:55 AM 60.8 °F 45.5 °F 57% 30.29 in 10.0 mi ESE 15.0 mph 21.9 mph N/A   Clear
10:15 AM 62.2 °F 44.8 °F 53% 30.28 in 10.0 mi ESE 16.1 mph 23.0 mph N/A   Clear
10:35 AM 62.6 °F 44.8 °F 52% 30.27 in 10.0 mi ESE 16.1 mph 24.2 mph N/A   Clear
10:55 AM 64.0 °F 44.4 °F 49% 30.25 in 10.0 mi ESE 17.3 mph 24.2 mph N/A   Clear
11:15 AM 65.1 °F 43.9 °F 46% 30.25 in 10.0 mi ESE 19.6 mph 26.5 mph N/A   Clear
11:35 AM 66.2 °F 43.7 °F 44% 30.23 in 10.0 mi ESE 19.6 mph 27.6 mph N/A   Clear
11:55 AM 67.1 °F 42.8 °F 41% 30.22 in 10.0 mi ESE 18.4 mph 24.2 mph N/A   Clear
12:15 PM 69.8 °F 40.5 °F 34% 30.20 in 10.0 mi ESE 21.9 mph 31.1 mph N/A   Clear
12:35 PM 69.6 °F 41.9 °F 37% 30.20 in 10.0 mi ESE 20.7 mph 29.9 mph N/A   Clear
12:55 PM 70.2 °F 39.6 °F 33% 30.17 in 10.0 mi ESE 24.2 mph 35.7 mph N/A   Clear
1:15 PM 73.4 °F 37.8 °F 27% 30.19 in 10.0 mi SW 4.6 mph 27.6 mph N/A   Clear
1:35 PM 70.9 °F 39.7 °F 32% 30.17 in 10.0 mi ESE 16.1 mph 27.6 mph N/A   Scattered Clouds
1:55 PM 72.5 °F 39.4 °F 30% 30.17 in 10.0 mi ESE 16.1 mph 25.3 mph N/A   Clear
2:15 PM 72.5 °F 37.8 °F 28% 30.16 in 10.0 mi SSE 15.0 mph 31.1 mph N/A   Clear
2:35 PM 72.7 °F 40.3 °F 31% 30.16 in 10.0 mi SE 12.7 mph 23.0 mph N/A   Clear
2:55 PM 72.0 °F 40.6 °F 32% 30.16 in 10.0 mi ESE 23.0 mph 28.8 mph N/A   Clear
3:15 PM 72.0 °F 40.5 °F 32% 30.17 in 10.0 mi ESE 15.0 mph 27.6 mph N/A   Clear
3:35 PM 70.5 °F 41.4 °F 35% 30.15 in 10.0 mi ESE 23.0 mph 35.7 mph N/A   Clear
3:55 PM 69.8 °F 40.5 °F 34% 30.17 in 10.0 mi East 15.0 mph 38.0 mph N/A   Clear
4:15 PM 69.3 °F 41.9 °F 37% 30.16 in 10.0 mi ESE 24.2 mph 34.5 mph N/A   Clear
4:35 PM 68.0 °F 42.4 °F 39% 30.15 in 10.0 mi ESE 21.9 mph 33.4 mph N/A   Clear
4:55 PM 68.0 °F 42.8 °F 40% 30.17 in 10.0 mi ESE 17.3 mph 28.8 mph N/A   Clear
5:15 PM 66.0 °F 43.7 °F 44% 30.17 in 10.0 mi ESE 23.0 mph 34.5 mph N/A   Clear
5:35 PM 63.9 °F 44.4 °F 49% 30.18 in 10.0 mi ESE 26.5 mph 34.5 mph N/A   Clear
5:55 PM 61.3 °F 44.8 °F 55% 30.18 in 10.0 mi ESE 23.0 mph 36.8 mph N/A   Clear
6:15 PM 59.4 °F 45.1 °F 59% 30.19 in 10.0 mi ESE 25.3 mph 34.5 mph N/A   Clear
6:35 PM 57.4 °F 44.8 °F 63% 30.19 in 10.0 mi ESE 26.5 mph 34.5 mph N/A   Clear
6:55 PM 56.5 °F 44.8 °F 65% 30.20 in 10.0 mi ESE 21.9 mph 34.5 mph N/A   Clear
7:15 PM 54.9 °F 44.8 °F 69% 30.22 in 10.0 mi ESE 21.9 mph 39.1 mph N/A   Clear
7:35 PM 53.8 °F 44.8 °F 72% 30.23 in 10.0 mi ESE 23.0 mph 34.5 mph N/A   Clear
7:55 PM 52.3 °F 44.6 °F 75% 30.25 in 10.0 mi ESE 23.0 mph 34.5 mph N/A   Clear
8:15 PM 52.2 °F 44.6 °F 75% 30.27 in 10.0 mi ESE 18.4 mph 28.8 mph N/A   Clear
8:35 PM 51.8 °F 44.1 °F 75% 30.28 in 10.0 mi ESE 21.9 mph 29.9 mph N/A   Clear
8:55 PM 51.3 °F 44.2 °F 77% 30.29 in 10.0 mi ESE 18.4 mph 27.6 mph N/A   Clear
9:15 PM 50.9 °F 44.6 °F 79% 30.31 in 10.0 mi ESE 12.7 mph 20.7 mph N/A   Clear
9:35 PM 50.9 °F 44.4 °F 78% 30.32 in 10.0 mi ESE 12.7 mph 17.3 mph N/A   Clear
9:55 PM 50.5 °F 44.2 °F 79% 30.34 in 10.0 mi ESE 11.5 mph 16.1 mph N/A   Clear
10:15 PM 50.4 °F 44.1 °F 79% 30.35 in 10.0 mi ESE 5.8 mph - N/A   Scattered Clouds
10:35 PM 50.5 °F 44.2 °F 79% 30.35 in 10.0 mi ESE 6.9 mph - N/A   Mostly Cloudy
10:55 PM 50.9 °F 44.2 °F 78% 30.35 in 10.0 mi ESE 4.6 mph - N/A   Overcast
11:15 PM 51.1 °F 44.6 °F 78% 30.35 in 10.0 mi SE 3.5 mph - N/A   Overcast
11:35 PM 51.3 °F 44.4 °F 77% 30.35 in 10.0 mi SE 3.5 mph - N/A   Overcast
11:55 PM 51.4 °F 44.6 °F 77% 30.35 in 10.0 mi SE 3.5 mph - N/A   Overcast